Regional Weather Roundup
Issued by NWS Goodland, KS

Home | Current Version | Previous Version | Graphics & Text | Print | Product List | Glossary On
Versions: 1 2 3 4 5 6 7 8 9 10 11 12 13 14 15 16 17 18 19 20 21 22 23 24 25 26 27 28 29 30 31 32 33 34 35 36 37 38 39 40 41 42 43 44 45 46 47 48 49 50
000
ASUS43 KGLD 202108
RWRGLD

GOODLAND FORECAST AREA HOURLY WEATHER ROUNDUP
NATIONAL WEATHER SERVICE GOODLAND KS
300 PM MDT WED AUG 20 2014

...OFFICIAL OBSERVATIONS...

CITY           SKY/WX    TMP DP  RH WIND       PRES   REMARKS
GOODLAND KS    PTSUNNY   96  53  23 MISG      29.80F
HILL CITY KS   CLOUDY    98  64  32 S18G25    29.73F HX 100
IMPERIAL NEB   SUNNY     90  57  32 NE8       29.80F
MCCOOK NEB     PTSUNNY   96  61  31 S9        29.74F
AKRON CO       MOSUNNY   86  52  30 VRB6      29.89F
BURLINGTON CO  PTSUNNY   90  53  28 N10       29.85F
LIMON CO       PTSUNNY   86  47  25 NE8       29.93F
$$

...UNOFFICIAL OBSERVATIONS...

CITY           SKY/WX    TMP DP  RH WIND       PRES   REMARKS
COLBY KS       SUNNY     97  66  36 SE9G20    29.78F HX 100
LENORA KS        N/A     95  32  11 CALM        N/A
NORTON KS      SUNNY     95  57  28 SE15      29.73
SHARON SPRINGS   N/A    100  52  19 S10G18      N/A
WAKEENEY KS      N/A     97  56  25 MISG        N/A
KIT CARSON CO    N/A     94  49  21 MISG        N/A
YUMA CO          N/A     86  56  35 CALM        N/A
$$



USA.gov is the U.S. government's official web portal to all federal, state and local government web resources and services.